Location: Ripley
(48.3812°N, 115.4473°W)
Time: 13:39:35
(UTC+00:00)

RS-15 - Pass Details

Date: 30 June 2022
Orbit: 1881 x 2163 km, 64.8° (Epoch: 13 August)

Event Time Altitude Azimuth Distance (km) Brightness Sun altitude
Rises 04:23:59 0° 301° (WNW) 5,666 12.4 -5.5°
Reaches altitude 10° 04:27:52 10° 309° (NW) 4,679 11.9 -5.9°
Maximum altitude 04:39:21 41° 17° (NNE) 2,890 9.2 -7.2°
Drops below altitude 10° 04:50:41 10° 85° (E) 4,630 9.7 -8.5°
Sets 04:54:29 0° 93° (E) 5,602 10.0 -8.9°
